Date String (YYYY-MM-DD hh:mm:ss) UTC,Instrument flags,Ambient pressure (hPa),Sample flow (lpm),Bypass flow (lpm),Sample temperature (°C),Ambient temperature (°C),ASC tube jacket temperature (°C),LED temperature (°C),Box temperature (°C),Sample RH (%),Span deviation,Mass concentration (μg/m³),Mass concentration (μg/m³),Mass concentration (μg/m³)
DateTimeUTC,F1_M11,P_M11,Q1_M11,Q2_M11,T1_M11,T2_M11,T3_M11,T4_M11,T5_M11,U1_M11,ZSPAN_M11,X0_M11,X2_M11,X1_M11
2022-06-06 21:00:00,,0821.1,5.01,0.00,29.1,27.8,00.0,38.0,31.1,21.9,0000.0,0014.31,0004.88,0003.37
2022-06-06 21:01:00,,0821.1,4.99,0.00,29.1,27.9,00.0,38.0,31.1,21.9,0000.0,0014.01,0004.85,0003.35
2022-06-06 21:02:00,,0821.2,5.00,0.00,29.2,28.1,00.0,38.0,31.1,21.6,0000.0,0013.36,0004.85,0003.31
2022-06-06 21:03:00,,0821.1,5.01,0.00,29.2,28.2,00.0,38.0,31.2,22.7,0000.0,0013.34,0004.73,0003.26
2022-06-06 21:04:00,,0821.1,5.00,0.00,29.2,28.3,00.0,38.0,31.2,24.1,0000.0,0013.41,0004.63,0003.20
2022-06-06 21:05:00,,0821.1,4.99,0.00,29.3,28.4,00.0,38.0,31.3,23.8,0000.0,0013.68,0004.62,0003.14
2022-06-06 21:06:00,,0821.0,5.00,0.00,29.3,28.5,00.0,38.1,31.3,23.2,0000.0,0013.35,0004.58,0003.07
2022-06-06 21:07:00,,0821.1,4.99,0.00,29.4,28.6,00.0,38.1,31.4,22.4,0000.0,0012.55,0004.55,0003.00
2022-06-06 21:08:00,,0821.1,5.00,0.00,29.4,28.6,00.0,38.1,31.4,22.7,0000.0,0013.06,0004.52,0002.96
2022-06-06 21:09:00,,0821.0,5.01,0.00,29.4,28.6,00.0,38.1,31.4,22.9,0000.0,0013.19,0004.52,0002.94
2022-06-06 21:10:00,,0821.0,4.99,0.00,29.4,28.0,00.0,38.1,31.3,22.1,0000.0,0013.56,0004.48,0002.89
2022-06-06 21:11:00,,0821.1,5.01,0.00,29.4,27.6,00.0,38.0,31.1,21.9,0000.0,0013.45,0004.42,0002.82
2022-06-06 21:12:00,,0821.0,4.99,0.00,29.3,27.5,00.0,38.1,31.1,23.2,0000.0,0013.19,0004.35,0002.75
2022-06-06 21:13:00,,0821.0,5.00,0.00,29.3,27.5,00.0,38.1,31.1,22.4,0000.0,0013.16,0004.30,0002.68
2022-06-06 21:14:00,,0821.0,5.01,0.00,29.3,27.6,00.0,38.1,31.1,22.3,0000.0,0013.11,0004.27,0002.62
2022-06-06 21:15:00,,0821.1,5.00,0.00,29.3,27.8,00.0,38.1,31.2,22.1,0000.0,0013.71,0004.25,0002.55
2022-06-06 21:16:00,,0821.1,5.00,0.00,29.3,27.9,00.0,38.1,31.2,22.8,0000.0,0015.20,0004.23,0002.52
2022-06-06 21:17:00,,0821.1,4.99,0.00,29.3,28.1,00.0,38.1,31.2,21.7,0000.0,0015.36,0004.18,0002.50
2022-06-06 21:18:00,,0821.1,4.99,0.00,29.3,28.2,00.0,38.1,31.3,21.4,0000.0,0015.88,0004.15,0002.46
2022-06-06 21:19:00,,0821.2,5.01,0.00,29.3,28.3,00.0,38.1,31.3,21.4,0000.0,0015.59,0004.15,0002.39
2022-06-06 21:20:00,,0821.2,5.01,0.00,29.4,28.4,00.0,38.1,31.4,20.6,0000.0,0015.88,0004.08,0002.34
2022-06-06 21:21:00,,0821.3,4.99,0.00,29.4,28.5,00.0,38.2,31.4,20.9,0000.0,0015.66,0004.08,0002.30
2022-06-06 21:22:00,,0821.3,5.00,0.00,29.4,28.6,00.0,38.2,31.4,20.9,0000.0,0015.89,0004.07,0002.28
2022-06-06 21:23:00,,0821.3,5.01,0.00,29.5,28.7,00.0,38.2,31.5,20.8,0000.0,0016.19,0004.08,0002.27
2022-06-06 21:24:00,,0821.3,5.00,0.00,29.5,28.4,00.0,38.2,31.4,21.1,0000.0,0016.49,0004.09,0002.23
2022-06-06 21:25:00,,0821.4,4.99,0.00,29.4,27.5,00.0,38.1,31.1,21.5,0000.0,0016.17,0004.10,0002.19
2022-06-06 21:26:00,,0821.4,5.01,0.00,29.3,27.0,00.0,38.1,31.0,22.0,0000.0,0015.35,0004.10,0002.17
2022-06-06 21:27:00,,0821.4,4.99,0.00,29.3,26.9,00.0,38.1,30.9,22.6,0000.0,0013.54,0004.08,0002.13
2022-06-06 21:28:00,,0821.4,5.01,0.00,29.2,27.0,00.0,38.1,30.9,21.3,0000.0,0012.68,0004.09,0002.07
2022-06-06 21:29:00,,0821.4,4.99,0.00,29.2,27.2,00.0,38.0,30.9,20.3,0000.0,0011.96,0004.07,0002.01
2022-06-06 21:30:00,,0821.4,4.99,0.00,29.2,27.3,00.0,38.0,31.0,20.2,0000.0,0012.30,0004.02,0001.95
2022-06-06 21:31:00,,0821.5,5.00,0.00,29.2,27.5,00.0,38.0,31.0,20.3,0000.0,0012.37,0004.01,0001.91
2022-06-06 21:32:00,,0821.6,5.00,0.00,29.2,27.7,00.0,38.0,31.1,21.3,0000.0,0012.38,0003.96,0001.88
2022-06-06 21:33:00,,0821.7,5.00,0.00,29.2,27.9,00.0,38.0,31.1,21.0,0000.0,0012.87,0003.99,0001.84
2022-06-06 21:34:00,,0821.8,5.00,0.00,29.2,28.0,00.0,38.1,31.2,20.1,0000.0,0012.80,0003.97,0001.83
2022-06-06 21:35:00,,0821.8,5.00,0.00,29.3,28.1,00.0,38.1,31.2,21.6,0000.0,0014.30,0003.92,0001.80
2022-06-06 21:36:00,,0821.9,4.99,0.00,29.3,28.2,00.0,38.1,31.3,21.8,0000.0,0015.90,0003.93,0001.78
2022-06-06 21:37:00,,0822.0,5.00,0.00,29.3,28.4,00.0,38.1,31.3,21.9,0000.0,0016.83,0003.96,0001.78
2022-06-06 21:38:00,,0822.2,5.01,0.00,29.3,28.4,00.0,38.1,31.3,23.1,0000.0,0017.65,0003.94,0001.78
2022-06-06 21:39:00,,0822.3,5.01,0.00,29.4,28.5,00.0,38.1,31.4,22.5,0000.0,0018.72,0003.90,0001.79
2022-06-06 21:40:00,,0822.4,4.99,0.00,29.4,28.5,00.0,38.2,31.4,21.1,0000.0,0019.57,0003.88,0001.82
2022-06-06 21:41:00,,0822.4,5.01,0.00,29.4,27.9,00.0,38.1,31.2,20.9,0000.0,0019.55,0003.87,0001.84
2022-06-06 21:42:00,,0822.5,4.99,0.00,29.4,27.4,00.0,38.1,31.1,23.4,0000.0,0018.99,0003.89,0001.85
2022-06-06 21:43:00,,0822.5,5.01,0.00,29.3,27.4,00.0,38.1,31.1,21.9,0000.0,0019.40,0003.92,0001.84
2022-06-06 21:44:00,,0822.5,5.00,0.00,29.2,27.4,00.0,38.1,31.1,21.8,0000.0,0019.78,0003.90,0001.85
2022-06-06 21:45:00,,0822.6,5.00,0.00,29.2,27.6,00.0,38.1,31.1,22.7,0000.0,0020.36,0003.86,0001.84
2022-06-06 21:46:00,,0822.7,5.01,0.00,29.2,27.7,00.0,38.1,31.1,23.4,0000.0,0020.08,0003.87,0001.85
2022-06-06 21:47:00,,0822.5,4.99,0.00,29.2,27.8,00.0,38.1,31.1,24.1,0000.0,0018.65,0003.88,0001.89
2022-06-06 21:48:00,,0822.4,5.01,0.00,29.3,28.0,00.0,38.1,31.2,21.5,0000.0,0019.51,0003.84,0001.88
2022-06-06 21:49:00,,0822.2,5.00,0.00,29.3,28.1,00.0,38.1,31.2,20.5,0000.0,0020.10,0003.84,0001.86
2022-06-06 21:50:00,,0821.8,5.01,0.00,29.3,28.2,00.0,38.1,31.2,19.2,0000.0,0019.08,0003.82,0001.85
2022-06-06 21:51:00,,0821.4,4.99,0.00,29.3,28.2,00.0,38.1,31.3,17.9,0000.0,0018.29,0003.83,0001.83
2022-06-06 21:52:00,,0821.3,5.00,0.00,29.3,28.3,00.0,38.1,31.3,17.8,0000.0,0017.89,0003.80,0001.77
2022-06-06 21:53:00,,0821.3,5.01,0.00,29.4,28.4,00.0,38.1,31.3,19.3,0000.0,0017.66,0003.73,0001.72
2022-06-06 21:54:00,,0821.3,5.01,0.00,29.4,28.5,00.0,38.2,31.4,20.7,0000.0,0016.99,0003.67,0001.71
2022-06-06 21:55:00,,0821.4,5.00,0.00,29.4,28.1,00.0,38.1,31.3,20.5,0000.0,0015.67,0003.62,0001.73
2022-06-06 21:56:00,,0821.4,5.00,0.00,29.4,27.4,00.0,38.1,31.1,21.7,0000.0,0014.80,0003.65,0001.77
2022-06-06 21:57:00,,0821.4,5.01,0.00,29.3,27.3,00.0,38.1,31.0,21.3,0000.0,0013.27,0003.65,0001.81
2022-06-06 21:58:00,,0821.6,5.00,0.00,29.2,27.3,00.0,38.1,31.0,21.6,0000.0,0012.68,0003.63,0001.81
2022-06-06 21:59:00,,0821.7,4.99,0.00,29.2,27.4,00.0,38.1,31.0,22.3,0000.0,0010.93,0003.63,0001.85
